Simultaneous Nadir Overpasses (SNOs) Predictions

Prediction of SNOs over PacNW region [( 10.00, 139.50) to ( 22.70, 165.60)] between AQUA and NPP Satellites:

Table of predicted SNOs over PacNW region for the next 30.0 days since TLE Epoch: 10/24/2014
Index Date (AQUA) Time (AQUA) AQUA Lat,Lon Date (NPP) Time (NPP) NPP Lat,Lon Distance(km) Time Diff (sec)
1 10/26/2014 03:28:37 10.09, 150.28 10/26/2014 03:32:05 8.84, 149.02 196.22 208
2 10/28/2014 15:32:18 10.04, 152.28 10/28/2014 15:29:45 9.99, 152.49 23.34 153
3 11/03/2014 02:39:13 10.06, 162.64 11/03/2014 02:41:18 9.83, 161.54 123.29 125
4 11/05/2014 16:20:41 13.84, 140.76 11/05/2014 16:19:05 13.84, 140.75 1.04 96
5 11/11/2014 03:28:31 10.07, 150.31 11/11/2014 03:31:41 9.76, 148.93 155.14 190
6 11/13/2014 15:32:06 10.00, 152.33 11/13/2014 15:29:05 9.97, 152.61 31.16 181
7 11/19/2014 02:38:45 10.10, 162.75 11/19/2014 02:40:35 9.84, 161.68 121.56 110




NCC Satellite Simultaneous Nadir Overpasses (SNOs) Prediction Service
